Location: *
(2.5500°S, 65.9667°W)
Time: 12:56:19
(UTC+00:00)

Cosmos 2173 Rocket - Pass Details

Date: 29 May 2022
Orbit: 945 x 1000 km, 83.0° (Epoch: 28 June)

Event Time Altitude Azimuth Distance (km) Brightness Sun altitude
Rises 09:27:23 0° 26° (NNE) 3,650 7.8 -13.5°
Reaches altitude 10° 09:30:35 10° 43° (NE) 2,717 7.4 -12.7°
Maximum altitude 09:34:58 20° 88° (E) 2,095 6.8 -11.7°
Drops below altitude 10° 09:39:23 10° 133° (SE) 2,751 6.7 -10.7°
Sets 09:42:37 0° 149° (SSE) 3,710 7.2 -9.9°
